Regional Weather Roundup
Issued by NWS

Home | Current Version | Previous Version | Graphics & Text | Print | Product List | Glossary Off
Versions: 1 2 3 4 5 6 7 8 9 10 11 12 13 14 15 16 17 18 19 20 21 22 23 24 25 26 27 28 29 30 31 32 33 34 35 36 37 38 39 40 41 42 43 44 45 46 47 48 49 50

000
ASUS43 KTOP 162059
RWRKS

WEATHER ROUNDUP FOR KANSAS
NATIONAL WEATHER SERVICE GOODLAND KS
300 PM CST MON JAN 16 2017

NOTE:  "FAIR" INDICATES FEW OR NO CLOUDS BELOW 12,000 FEET WITH NO
SIGNIFICANT WEATHER AND/OR OBSTRUCTIONS TO VISIBILITY.

KSZ001>006-013>018-027>032-041>047-162200-
NORTHWEST KANSAS

CITY           SKY/WX    TMP DP  RH WIND       PRES   REMARKS
GOODLAND       CLOUDY    33  32  96 N23G29    29.94R FOG     WCI  21
HAYS           CLOUDY    33  31  92 N13       29.90R WCI  24
HILL CITY      CLOUDY    34  33  96 N13       29.92R WCI  25
RUSSELL        CLOUDY    32  32 100 NW10      29.87R FOG     WCI  24
$$

KSZ061>065-074>080-084>089-162200-
SOUTHWEST KANSAS

CITY           SKY/WX    TMP DP  RH WIND       PRES   REMARKS
DODGE CITY     CLOUDY    33  32  96 NW9       29.89S FOG
ELKHART          N/A     35  24  64 NW15        N/A  WCI  25
GARDEN CITY    CLOUDY    34  31  88 N16       29.91R WCI  24
GREAT BEND     CLOUDY    33  31  92 NW14      29.88S WCI  23
LIBERAL        CLOUDY    37  34  87 NW18      29.94R WCI  27
$$

KSZ066>073-081>083-090>101-162200-
SOUTHEAST KANSAS

CITY           SKY/WX    TMP DP  RH WIND       PRES   REMARKS
CHANUTE        CLOUDY    46  42  86 W12       29.86R
HUTCHINSON     CLOUDY    36  34  92 NW13      29.86R WCI  27
MEDICINE LODGE   N/A     37  32  82 NW14G20   29.89R WCI  28
NEWTON         CLOUDY    36  35  96 W14       29.85R WCI  27
PARSONS        CLOUDY    48  42  80 SW12      29.87S
WICHITA INTL   CLOUDY    39  36  89 W12       29.86R WCI  32
WICHITA JABRA  CLOUDY    39  36  89 SW12      29.85S WCI  32
WICHITA MCCONL PTSUNNY   39  36  87 SW10      29.85S WCI  32
WINFIELD       CLOUDY    40  36  86 SW16      29.89R WCI  31
$$

KSZ007>012-019>026-033>040-048>060-102>105-162200-
NORTHEAST KANSAS

CITY           SKY/WX    TMP DP  RH WIND       PRES   REMARKS
CONCORDIA      CLOUDY    32  32 100 N10       29.85R FOG     WCI  24
EMPORIA        LGT RAIN  40  38  93 S14       29.84R WCI  32
LAWRENCE       CLOUDY    46  44  93 S10       29.84R
MANHATTAN      LGT RAIN  40  38  93 NW3       29.82R FOG
OLATHE IND     CLOUDY    47  44  90 SW10      29.84R
OLATHE EXE     CLOUDY    48  46  93 SW9       29.83R
SALINA         LGT RAIN  36  34  92 NW9       29.84S FOG
TOPEKA BILLARD LGT RAIN  46  42  86 S7        29.82S
TOPEKA FORBES  LGT RAIN  45  41  86 S12       29.82S
$$




USA.gov is the U.S. government's official web portal to all federal, state and local government web resources and services.